When you browse on this site, cookies collect data to enhance your experience and personalize the content and advertising you see.
Visit our Privacy Policy to learn more. By continuing to use the site, you agree to this use of cookies and data.
  • In United Kingdom
  • List of Countries
  • For 7 days
  • Water Temperature
  • Weather Map
  • Weather Widgets
  • user-avatar
    Login

    Hourly Weather Multan

    Today, 16 October, Wednesday

    Time Temperature Precipitation Wind Pressure Humidity
    00:00 +28°C° 0 mm 1 mps 749 mmHg 22%
    01:00 +28°C° 0 mm 1 mps 749 mmHg 22%
    02:00 +28°C° 0 mm 1 mps 748 mmHg 22%
    03:00 +27°C° 0 mm 1 mps 748 mmHg 23%
    04:00 +27°C° 0 mm 1 mps 749 mmHg 23%
    05:00 +24°C° 0 mm 0 mps 749 mmHg 27%
    06:00 +26°C° 0 mm 0 mps 749 mmHg 25%
    07:00 +27°C° 0 mm 0 mps 750 mmHg 23%
    08:00 +29°C° 0 mm 0 mps 750 mmHg 20%
    09:00 +33°C° 0 mm 1 mps 750 mmHg 19%
    10:00 +35°C° 0 mm 1 mps 750 mmHg 17%
    11:00 +37°C° 0 mm 1 mps 750 mmHg 15%
    12:00 +39°C° 0 mm 2 mps 749 mmHg 14%
    13:00 +40°C° 0 mm 2 mps 749 mmHg 12%
    14:00 +40°C° 0 mm 2 mps 748 mmHg 11%
    15:00 +40°C° 0 mm 2 mps 748 mmHg 12%
    16:00 +39°C° 0 mm 2 mps 747 mmHg 12%
    17:00 +38°C° 0 mm 2 mps 747 mmHg 13%
    18:00 +36°C° 0 mm 2 mps 747 mmHg 15%
    19:00 +35°C° 0 mm 2 mps 747 mmHg 17%
    20:00 +32°C° 0 mm 2 mps 748 mmHg 18%
    21:00 +31°C° 0 mm 2 mps 748 mmHg 19%
    22:00 +30°C° 0 mm 2 mps 748 mmHg 20%
    23:00 +29°C° 0 mm 2 mps 748 mmHg 21%

    Tomorrow, 17 October, Thursday

    Time Temperature Precipitation Wind Pressure Humidity
    00:00 +29°C° 0 mm 1 mps 748 mmHg 21%
    01:00 +28°C° 0 mm 1 mps 748 mmHg 22%
    02:00 +27°C° 0 mm 1 mps 748 mmHg 23%
    03:00 +27°C° 0 mm 1 mps 748 mmHg 23%
    04:00 +27°C° 0 mm 1 mps 748 mmHg 23%
    05:00 +27°C° 0 mm 1 mps 747 mmHg 23%
    06:00 +28°C° 0 mm 1 mps 748 mmHg 21%
    07:00 +29°C° 0 mm 1 mps 749 mmHg 20%
    08:00 +30°C° 0 mm 1 mps 749 mmHg 18%
    09:00 +33°C° 0 mm 1 mps 749 mmHg 16%
    10:00 +35°C° 0 mm 1 mps 749 mmHg 14%
    11:00 +38°C° 0 mm 2 mps 749 mmHg 12%
    12:00 +39°C° 0 mm 2 mps 748 mmHg 11%
    13:00 +40°C° 0 mm 2 mps 747 mmHg 10%
    14:00 +41°C° 0 mm 2 mps 747 mmHg 9%
    15:00 +40°C° 0 mm 2 mps 747 mmHg 9%
    16:00 +39°C° 0 mm 2 mps 746 mmHg 10%
    17:00 +38°C° 0 mm 3 mps 746 mmHg 10%
    18:00 +36°C° 0 mm 2 mps 746 mmHg 13%
    19:00 +34°C° 0 mm 2 mps 747 mmHg 16%
    20:00 +31°C° 0 mm 2 mps 747 mmHg 18%
    21:00 +31°C° 0 mm 2 mps 747 mmHg 19%
    22:00 +30°C° 0 mm 2 mps 747 mmHg 19%
    23:00 +29°C° 0 mm 2 mps 747 mmHg 20%

    Day after tomorrow, 18 October, Friday

    Time Temperature Precipitation Wind Pressure Humidity
    00:00 +29°C° 0 mm 2 mps 747 mmHg 20%
    01:00 +28°C° 0 mm 1 mps 747 mmHg 21%
    02:00 +27°C° 0 mm 1 mps 746 mmHg 22%
    03:00 +27°C° 0 mm 1 mps 746 mmHg 23%
    04:00 +26°C° 0 mm 1 mps 746 mmHg 24%
    05:00 +26°C° 0 mm 1 mps 746 mmHg 25%
    06:00 +27°C° 0 mm 1 mps 747 mmHg 23%
    07:00 +29°C° 0 mm 1 mps 747 mmHg 22%
    08:00 +30°C° 0 mm 1 mps 748 mmHg 20%
    09:00 +32°C° 0 mm 1 mps 748 mmHg 18%
    10:00 +36°C° 0 mm 2 mps 748 mmHg 16%
    11:00 +38°C° 0 mm 2 mps 749 mmHg 14%
    12:00 +39°C° 0 mm 2 mps 748 mmHg 13%
    13:00 +39°C° 0 mm 2 mps 747 mmHg 12%
    14:00 +40°C° 0 mm 2 mps 747 mmHg 12%
    15:00 +39°C° 0 mm 2 mps 746 mmHg 12%
    16:00 +38°C° 0 mm 2 mps 746 mmHg 13%
    17:00 +37°C° 0 mm 2 mps 746 mmHg 14%
    18:00 +36°C° 0 mm 3 mps 747 mmHg 17%
    19:00 +34°C° 0 mm 3 mps 747 mmHg 19%
    20:00 +32°C° 0 mm 4 mps 748 mmHg 21%
    21:00 +29°C° 0 mm 4 mps 748 mmHg 28%
    22:00 +28°C° 0 mm 4 mps 748 mmHg 36%
    23:00 +26°C° 0 mm 4 mps 749 mmHg 43%

    19 October, Saturday

    Time Temperature Precipitation Wind Pressure Humidity
    00:00 +26°C° 0 mm 4 mps 749 mmHg 43%
    01:00 +26°C° 0 mm 4 mps 749 mmHg 43%
    02:00 +25°C° 0 mm 4 mps 749 mmHg 43%
    03:00 +25°C° 0 mm 4 mps 749 mmHg 43%
    04:00 +25°C° 0 mm 4 mps 749 mmHg 43%
    05:00 +25°C° 0 mm 4 mps 749 mmHg 44%
    06:00 +25°C° 0 mm 4 mps 750 mmHg 41%
    07:00 +26°C° 0 mm 5 mps 750 mmHg 39%
    08:00 +27°C° 0 mm 6 mps 751 mmHg 37%
    09:00 +29°C° 0 mm 6 mps 751 mmHg 32%
    10:00 +33°C° 0 mm 6 mps 751 mmHg 28%
    11:00 +35°C° 0 mm 6 mps 751 mmHg 23%
    12:00 +36°C° 0 mm 5 mps 750 mmHg 22%
    13:00 +37°C° 0 mm 5 mps 750 mmHg 20%
    14:00 +39°C° 0 mm 5 mps 749 mmHg 19%
    15:00 +37°C° 0 mm 4 mps 749 mmHg 20%
    16:00 +37°C° 0 mm 4 mps 748 mmHg 20%
    17:00 +36°C° 0 mm 4 mps 748 mmHg 21%
    18:00 +34°C° 0 mm 4 mps 748 mmHg 25%
    19:00 +32°C° 0 mm 4 mps 749 mmHg 29%
    20:00 +29°C° 0 mm 4 mps 749 mmHg 33%
    21:00 +28°C° 0 mm 3 mps 749 mmHg 35%
    22:00 +27°C° 0 mm 2 mps 750 mmHg 37%
    23:00 +26°C° 0 mm 1 mps 750 mmHg 40%

    20 October, Sunday

    Time Temperature Precipitation Wind Pressure Humidity
    00:00 +25°C° 0 mm 1 mps 750 mmHg 41%
    01:00 +23°C° 0 mm 0 mps 750 mmHg 42%
    02:00 +22°C° 0 mm 0 mps 749 mmHg 43%
    03:00 +23°C° 0 mm 0 mps 750 mmHg 43%
    04:00 +25°C° 0 mm 1 mps 750 mmHg 43%
    05:00 +25°C° 0 mm 1 mps 750 mmHg 42%
    06:00 +26°C° 0 mm 1 mps 750 mmHg 39%
    07:00 +27°C° 0 mm 1 mps 750 mmHg 36%
    08:00 +29°C° 0 mm 1 mps 751 mmHg 33%
    09:00 +31°C° 0 mm 1 mps 751 mmHg 28%
    10:00 +34°C° 0 mm 1 mps 751 mmHg 24%
    11:00 +34°C° 0 mm 0 mps 751 mmHg 19%
    12:00 +37°C° 0 mm 1 mps 750 mmHg 17%
    13:00 +37°C° 0 mm 1 mps 749 mmHg 16%
    14:00 +39°C° 0 mm 2 mps 749 mmHg 14%
    15:00 +38°C° 0 mm 2 mps 748 mmHg 14%
    16:00 +37°C° 0 mm 2 mps 748 mmHg 15%
    17:00 +37°C° 0 mm 2 mps 748 mmHg 15%
    18:00 +35°C° 0 mm 2 mps 748 mmHg 17%
    19:00 +32°C° 0 mm 2 mps 748 mmHg 19%
    20:00 +30°C° 0 mm 2 mps 748 mmHg 21%
    21:00 +30°C° 0 mm 2 mps 748 mmHg 22%
    22:00 +29°C° 0 mm 2 mps 748 mmHg 24%
    23:00 +28°C° 0 mm 3 mps 749 mmHg 25%

    21 October, Monday

    Time Temperature Precipitation Wind Pressure Humidity
    00:00 +27°C° 0 mm 2 mps 749 mmHg 25%
    01:00 +27°C° 0 mm 1 mps 748 mmHg 26%
    02:00 +24°C° 0 mm 0 mps 748 mmHg 27%
    03:00 +26°C° 0 mm 1 mps 748 mmHg 27%
    04:00 +25°C° 0 mm 1 mps 748 mmHg 27%
    05:00 +25°C° 0 mm 1 mps 748 mmHg 27%
    06:00 +26°C° 0 mm 1 mps 749 mmHg 24%
    07:00 +28°C° 0 mm 1 mps 749 mmHg 22%
    08:00 +29°C° 0 mm 1 mps 750 mmHg 19%
    09:00 +31°C° 0 mm 1 mps 750 mmHg 17%
    10:00 +34°C° 0 mm 1 mps 750 mmHg 14%
    11:00 +36°C° 0 mm 1 mps 750 mmHg 12%
    12:00 +38°C° 0 mm 2 mps 749 mmHg 11%
    13:00 +39°C° 0 mm 2 mps 748 mmHg 10%
    14:00 +40°C° 0 mm 2 mps 748 mmHg 9%
    15:00 +39°C° 0 mm 2 mps 747 mmHg 9%
    16:00 +38°C° 0 mm 2 mps 747 mmHg 10%
    17:00 +37°C° 0 mm 2 mps 746 mmHg 10%
    18:00 +35°C° 0 mm 2 mps 747 mmHg 12%
    19:00 +32°C° 0 mm 2 mps 747 mmHg 14%
    20:00 +30°C° 0 mm 2 mps 747 mmHg 16%
    21:00 +29°C° 0 mm 2 mps 747 mmHg 17%
    22:00 +28°C° 0 mm 1 mps 747 mmHg 18%
    23:00 +27°C° 0 mm 1 mps 747 mmHg 18%
    Show more